Albany, NY

1:50 PM EDT on May 27, 2017 (GMT -0400)
Albany International

Weather History for KALB - November, 2013

Change the Weather History Date:

Tuesday, November 5, 2013

  Actual Average Record
Temperature  
Mean Temperature 39 °F 43 °F  
Max Temperature 52 °F 52 °F 75 °F (1994)
Min Temperature 25 °F 34 °F 17 °F (1951)
Degree Days  
Heating Degree Days 26 22  
Month to date heating degree days 115 107  
Since 1 July heating degree days 662 752  
Cooling Degree Days 0 0  
Month to date cooling degree days 0 0  
Year to date cooling degree days 763 598  
Moisture  
Dew Point 28 °F    
Average Humidity 64    
Maximum Humidity 81    
Minimum Humidity 46    
Precipitation  
Precipitation 0.00 in 0.11 in 1.58 in (1939)
Month to date precipitation 0.13 0.57  
Year to date precipitation 38.74 33.70  
Snow  
Snow 0.00 in 0.10 in 3.00 in (1894)
Month to date snowfall 0.0 0.2  
Since 1 July snowfall 0.0 0.5  
Since 1 September snowfall 0.0 0.5  
Snow Depth 0.00 in    
Sea Level Pressure  
Sea Level Pressure 30.59 in    
Wind  
Wind Speed 6 mph (SSE)    
Max Wind Speed 15 mph    
Max Gust Speed 21 mph    
Visibility 10 miles    
Events      
T = Trace of Precipitation, MM = Missing Value Source: NWS Daily Summary

Daily Weather History Graph

Daily Weather History Graph

Search for Another Location

Airport or City:

Trip Planner

Search our weather history database for the weather conditions in past years. The results will help you decide how hot, cold, wet, or windy it might be!

Date:

Astronomy

Nov. 05, 2013 Rise Set
Actual Time 6:34 AM EST 4:42 PM EST
Civil Twilight 6:04 AM EST 5:12 PM EST
Nautical Twilight 5:31 AM EST 5:45 PM EST
Astronomical Twilight 4:58 AM EST 6:18 PM EST
Moon 8:48 AM EST (11/5) 6:39 PM EST (11/5)
Length of Visible Light 11h 07m
Length of Day
10h 07m
Waxing Crescent, 6% of the Moon is Illuminated
Nov 5
Waxing Crescent
Nov 10
First Quarter
Nov 17
Full
Nov 25
Last Quarter
Dec 2
New

Hourly Weather History & Observations

Time (EST) Temp. Windchill Dew Point Humidity Pressure Visibility Wind Dir Wind Speed Gust Speed Precip Events Conditions
12:51 AM 30.0 °F - 21.9 °F 72% 30.68 in 10.0 mi Calm Calm - N/A   Overcast
1:51 AM 28.9 °F - 23.0 °F 78% 30.66 in 10.0 mi Calm Calm - N/A   Overcast
2:51 AM 28.9 °F - 21.9 °F 75% 30.66 in 10.0 mi Calm Calm - N/A   Mostly Cloudy
3:51 AM 28.0 °F - 21.9 °F 78% 30.66 in 10.0 mi Calm Calm - N/A   Scattered Clouds
4:51 AM 25.0 °F - 19.9 °F 81% 30.67 in 10.0 mi Calm Calm - N/A   Scattered Clouds
5:51 AM 26.1 °F - 21.0 °F 81% 30.66 in 10.0 mi Calm Calm - N/A   Mostly Cloudy
6:51 AM 28.0 °F - 23.0 °F 81% 30.65 in 10.0 mi Calm Calm - N/A   Mostly Cloudy
7:51 AM 30.9 °F 27.5 °F 23.0 °F 72% 30.66 in 10.0 mi South 3.5 mph - N/A   Scattered Clouds
8:51 AM 37.9 °F 32.7 °F 23.0 °F 55% 30.65 in 10.0 mi SSE 6.9 mph - N/A   Partly Cloudy
9:51 AM 42.1 °F 35.7 °F 25.0 °F 51% 30.65 in 10.0 mi SSE 11.5 mph - N/A   Scattered Clouds
10:51 AM 45.0 °F 39.3 °F 27.0 °F 49% 30.63 in 10.0 mi SSE 11.5 mph 18.4 mph N/A   Scattered Clouds
11:51 AM 46.9 °F - 28.9 °F 50% 30.61 in 10.0 mi South 11.5 mph - N/A   Mostly Cloudy
12:51 PM 48.9 °F - 30.0 °F 48% 30.58 in 10.0 mi SSE 10.4 mph - N/A   Mostly Cloudy
1:51 PM 50.0 °F - 30.9 °F 48% 30.56 in 10.0 mi SSE 12.7 mph - N/A   Mostly Cloudy
2:51 PM 52.0 °F - 32.0 °F 47% 30.54 in 10.0 mi SSE 8.1 mph - N/A   Mostly Cloudy
3:51 PM 50.0 °F - 33.1 °F 52% 30.53 in 10.0 mi South 6.9 mph - N/A   Mostly Cloudy
4:51 PM 50.0 °F - 33.1 °F 52% 30.53 in 10.0 mi South 8.1 mph - N/A   Mostly Cloudy
5:51 PM 50.0 °F - 33.1 °F 52% 30.52 in 10.0 mi SSE 6.9 mph - N/A   Mostly Cloudy
6:51 PM 48.9 °F - 33.1 °F 54% 30.52 in 10.0 mi SSE 5.8 mph - N/A   Overcast
7:51 PM 48.0 °F - 34.0 °F 58% 30.53 in 10.0 mi South 6.9 mph - N/A   Overcast
8:51 PM 48.0 °F - 34.0 °F 58% 30.51 in 10.0 mi SSE 3.5 mph - N/A   Overcast
9:51 PM 48.0 °F - 35.1 °F 61% 30.51 in 10.0 mi South 8.1 mph - N/A   Overcast
10:51 PM 48.0 °F - 35.1 °F 61% 30.48 in 10.0 mi SSE 6.9 mph - N/A   Overcast
11:51 PM 46.9 °F - 36.0 °F 66% 30.46 in 10.0 mi SSE 5.8 mph - N/A   Overcast